Weather History for Patterson, LA

Change the Weather History Date:

Sunday, September 8, 2013

  Actual Average Record
Temperature  
Mean Temperature 79 °F -  
Max Temperature 89 °F 85 °F 93 °F (2012)
Min Temperature 69 °F 70 °F 57 °F (2011)
Cooling Degree Days 14    
Growing Degree Days 29 (Base 50)    
Moisture  
Dew Point 73 °F    
Average Humidity 88    
Maximum Humidity 100    
Minimum Humidity 59    
Precipitation  
Precipitation 0.00 in - - ()
Sea Level Pressure  
Sea Level Pressure 30.01 in    
Wind  
Wind Speed 4 mph (ENE)    
Max Wind Speed 20 mph    
Max Gust Speed 25 mph    
Visibility 9 miles    
Events Thunderstorm    
Averages and records for this station are not official NWS values.
T = Trace of Precipitation, MM = Missing Value Source: NWS Daily Summary

Daily Weather History Graph

Daily Weather History Graph

Search for Another Location

Airport:

Trip Planner

Search our weather history database for the weather conditions in past years. The results will help you decide how hot, cold, wet, or windy it might be!

Date:

Astronomy

Sep. 08, 2013 Rise Set
Actual Time 6:46 AM CDT 7:18 PM CDT
Civil Twilight 6:22 AM CDT 7:42 PM CDT
Nautical Twilight 5:54 AM CDT 8:11 PM CDT
Astronomical Twilight 5:25 AM CDT 8:39 PM CDT
Moon 9:45 AM CDT (9/8) 9:14 PM CDT (9/8)
Length of Visible Light 13h 20m
Length of Day
12h 32m
Waxing Crescent, 11% of the Moon is Illuminated
Sep 8
Waxing Crescent
Sep 12
First Quarter
Sep 19
Full
Sep 26
Last Quarter
Oct 4
New

Hourly Weather History & Observations

Time (CDT) Temp. Heat Index Dew Point Humidity Pressure Visibility Wind Dir Wind Speed Gust Speed Precip Events Conditions
12:15 AM 71.6 °F - 69.8 °F 94% 30.03 in 10.0 mi Calm Calm - N/A   Clear
12:35 AM 69.8 °F - 69.8 °F 100% 30.01 in 10.0 mi NE 3.5 mph - N/A   Clear
12:55 AM 71.6 °F - 69.8 °F 94% 30.01 in 10.0 mi NE 3.5 mph - N/A   Clear
1:15 AM 71.6 °F - 69.8 °F 94% 30.00 in 10.0 mi Calm Calm - N/A   Clear
1:35 AM 71.6 °F - 71.6 °F 100% 30.00 in 10.0 mi Calm Calm - N/A   Clear
1:55 AM 71.6 °F - 71.6 °F 100% 30.00 in 10.0 mi Calm Calm - N/A   Clear
2:15 AM 71.6 °F - 69.8 °F 94% 29.99 in 10.0 mi ENE 3.5 mph - N/A   Clear
2:35 AM 69.8 °F - 68.0 °F 94% 29.99 in 10.0 mi NE 5.8 mph - N/A   Clear
2:55 AM 71.6 °F - 69.8 °F 94% 29.98 in 10.0 mi ENE 4.6 mph - N/A   Clear
3:15 AM 71.6 °F - 69.8 °F 94% 29.98 in 10.0 mi ENE 4.6 mph - N/A   Clear
3:35 AM 71.6 °F - 69.8 °F 94% 29.98 in 10.0 mi ENE 4.6 mph - N/A   Clear
3:55 AM 71.6 °F - 69.8 °F 94% 29.98 in 9.0 mi ENE 3.5 mph - N/A   Clear
4:15 AM 71.6 °F - 69.8 °F 94% 29.98 in 5.0 mi Calm Calm - N/A   Clear
4:35 AM 71.6 °F - 69.8 °F 94% 29.98 in 8.0 mi NNE 5.8 mph - N/A   Clear
4:55 AM 71.6 °F - 71.6 °F 100% 29.99 in 10.0 mi NE 4.6 mph - N/A   Clear
5:15 AM 71.6 °F - 69.8 °F 94% 29.99 in 9.0 mi Calm Calm - N/A   Clear
5:35 AM 71.6 °F - 69.8 °F 94% 29.99 in 2.0 mi ENE 3.5 mph - N/A   Clear
5:55 AM 71.6 °F - 69.8 °F 94% 29.99 in 9.0 mi ENE 4.6 mph - N/A   Clear
6:15 AM 71.6 °F - 69.8 °F 94% 30.00 in 7.0 mi Calm Calm - N/A   Clear
6:35 AM 69.8 °F - 68.0 °F 94% 30.01 in 7.0 mi ENE 4.6 mph - N/A   Clear
6:55 AM 71.6 °F - 69.8 °F 94% 30.01 in 5.0 mi East 3.5 mph - N/A   Clear
7:15 AM 71.6 °F - 69.8 °F 94% 30.02 in 4.0 mi ENE 3.5 mph - N/A   Clear
7:35 AM 71.6 °F - 71.6 °F 100% 30.02 in 4.0 mi East 4.6 mph - N/A   Clear
7:55 AM 73.4 °F - 71.6 °F 94% 30.03 in 7.0 mi ENE 5.8 mph - N/A   Clear
8:15 AM 75.2 °F - 71.6 °F 89% 30.04 in 9.0 mi ENE 5.8 mph - N/A   Clear
8:35 AM 77.0 °F - 73.4 °F 89% 30.04 in 10.0 mi ENE 5.8 mph - N/A   Clear
8:55 AM 78.8 °F - 73.4 °F 83% 30.04 in 10.0 mi NE 6.9 mph - N/A   Clear
9:15 AM 80.6 °F 85.4 °F 73.4 °F 79% 30.04 in 10.0 mi NE 5.8 mph - N/A   Clear
9:35 AM 82.4 °F 89.5 °F 75.2 °F 79% 30.04 in 9.0 mi ENE 8.1 mph - N/A   Clear
9:55 AM 82.4 °F 89.5 °F 75.2 °F 79% 30.04 in 10.0 mi ENE 8.1 mph - N/A   Clear
10:15 AM 82.4 °F 89.5 °F 75.2 °F 79% 30.04 in 10.0 mi East 8.1 mph - N/A   Clear
10:35 AM 84.2 °F 94.1 °F 77.0 °F 79% 30.04 in 10.0 mi ENE 10.4 mph - N/A   Scattered Clouds
10:55 AM 84.2 °F 94.1 °F 77.0 °F 79% 30.04 in 10.0 mi ENE 5.8 mph - N/A   Partly Cloudy
11:15 AM 84.2 °F 94.1 °F 77.0 °F 79% 30.03 in 10.0 mi ENE 6.9 mph - N/A   Partly Cloudy
11:35 AM 84.2 °F 92.3 °F 75.2 °F 74% 30.03 in 10.0 mi ENE 8.1 mph - N/A   Mostly Cloudy
11:55 AM 86.0 °F 95.1 °F 75.2 °F 70% 30.03 in 10.0 mi ENE 6.9 mph - N/A   Scattered Clouds
12:15 PM 87.8 °F 97.6 °F 75.2 °F 66% 30.03 in 10.0 mi East 6.9 mph - N/A   Partly Cloudy
12:35 PM 87.8 °F 97.6 °F 75.2 °F 66% 30.03 in 10.0 mi East 5.8 mph - N/A   Partly Cloudy
12:55 PM 86.0 °F 95.1 °F 75.2 °F 70% 30.02 in 10.0 mi ENE 3.5 mph - N/A   Mostly Cloudy
1:15 PM 87.8 °F 97.6 °F 75.2 °F 66% 30.01 in 10.0 mi Calm Calm - N/A   Mostly Cloudy
1:35 PM 89.6 °F 99.8 °F 75.2 °F 62% 30.01 in 10.0 mi ESE 3.5 mph - N/A   Partly Cloudy
1:55 PM 89.6 °F 98.2 °F 73.4 °F 59% 29.99 in 10.0 mi ENE 6.9 mph - N/A   Scattered Clouds
2:15 PM 89.6 °F 98.2 °F 73.4 °F 59% 29.99 in 10.0 mi ESE 3.5 mph - N/A   Mostly Cloudy
2:35 PM 87.8 °F 97.6 °F 75.2 °F 66% 29.99 in 10.0 mi SSW 15.0 mph - N/A   Overcast
2:56 PM 80.6 °F 86.2 °F 75.2 °F 84% 29.98 in 10.0 mi South 11.5 mph - N/A   Overcast
3:15 PM 78.8 °F - 75.2 °F 89% 29.98 in - SW 8.1 mph - N/A Thunderstorm Thunderstorm
3:35 PM 80.6 °F 87.1 °F 77.0 °F 89% 29.99 in 10.0 mi WSW 4.6 mph - N/A Thunderstorm Mostly Cloudy
3:55 PM 78.8 °F - 73.4 °F 83% 30.00 in 10.0 mi NNE 19.6 mph 25.3 mph N/A Thunderstorm Thunderstorm
4:15 PM 75.2 °F - 71.6 °F 89% 30.00 in 5.0 mi NNE 12.7 mph - N/A Thunderstorm Thunderstorm
4:35 PM 75.2 °F - 71.6 °F 89% 30.01 in 10.0 mi WNW 4.6 mph - N/A Thunderstorm Thunderstorm
4:55 PM 75.2 °F - 71.6 °F 89% 29.99 in 10.0 mi North 5.8 mph - N/A Thunderstorm Scattered Clouds
5:15 PM 77.0 °F - 73.4 °F 89% 29.99 in 10.0 mi NNE 4.6 mph - N/A   Clear
5:35 PM 77.0 °F - 73.4 °F 89% 29.99 in 10.0 mi Calm Calm - N/A   Partly Cloudy
5:55 PM 77.0 °F - 73.4 °F 89% 29.98 in 10.0 mi NE 3.5 mph - N/A   Partly Cloudy
6:15 PM 77.0 °F - 73.4 °F 89% 29.99 in 10.0 mi NNE 3.5 mph - N/A   Clear
6:35 PM 77.0 °F - 73.4 °F 89% 29.99 in 10.0 mi SSW 3.5 mph - N/A   Scattered Clouds
6:55 PM 77.0 °F - 73.4 °F 89% 29.99 in 10.0 mi Calm Calm - N/A   Partly Cloudy
7:15 PM 77.0 °F - 73.4 °F 89% 29.99 in 10.0 mi Calm Calm - N/A   Mostly Cloudy
7:35 PM 75.2 °F - 73.4 °F 94% 29.99 in 10.0 mi Calm Calm - N/A   Scattered Clouds
7:55 PM 75.2 °F - 73.4 °F 94% 30.00 in 9.0 mi Calm Calm - N/A   Clear
8:15 PM 75.2 °F - 73.4 °F 94% 30.00 in 9.0 mi Calm Calm - N/A   Clear
8:35 PM 75.2 °F - 73.4 °F 94% 30.00 in 9.0 mi NNE 3.5 mph - N/A   Clear
8:55 PM 73.4 °F - 73.4 °F 100% 30.00 in 8.0 mi ENE 3.5 mph - N/A   Clear
9:15 PM 73.4 °F - 73.4 °F 100% 30.01 in 10.0 mi East 3.5 mph - N/A   Clear
9:35 PM 73.4 °F - 73.4 °F 100% 30.01 in 9.0 mi ENE 4.6 mph - N/A   Partly Cloudy
9:55 PM 73.4 °F - 73.4 °F 100% 30.01 in 10.0 mi ENE 4.6 mph - N/A   Partly Cloudy
10:15 PM 73.4 °F - 73.4 °F 100% 30.01 in 10.0 mi NE 4.6 mph - N/A   Clear
10:35 PM 73.4 °F - 73.4 °F 100% 30.02 in 10.0 mi Calm Calm - N/A   Clear
10:55 PM 73.4 °F - 71.6 °F 94% 30.02 in 10.0 mi Calm Calm - N/A   Clear
11:15 PM 73.4 °F - 71.6 °F 94% 30.01 in 10.0 mi ENE 3.5 mph - N/A   Clear
11:35 PM 73.4 °F - 71.6 °F 94% 30.01 in 10.0 mi NE 4.6 mph - N/A   Clear
11:55 PM 73.4 °F - 71.6 °F 94% 30.01 in 10.0 mi Calm Calm - N/A   Clear